Regional Weather Roundup
Issued by NWS Huntsville, AL

Home | Current Version | Previous Version | Text Only | Print | Product List | Glossary On
Versions: 1 2 3 4 5 6 7 8 9 10 11 12 13 14 15 16 17 18 19 20 21 22 23 24 25 26 27 28 29 30 31 32 33 34 35 36 37 38 39 40 41 42 43 44 45 46 47 48 49 50
000
ASUS44 KHUN 231510
RWRHUN

WEATHER ROUNDUP FOR THE TENNESSEE VALLEY
NATIONAL WEATHER SERVICE HUNTSVILLE AL
900 AM CST THU NOV 23 2017

ALZ001>004-231600-
NORTHWEST ALABAMA

CITY           SKY/WX    TMP DP  RH WIND       PRES   REMARKS
COURTLAND HCN    N/A     36 N/A N/A CALM        N/A
RUSSELLVILLE     N/A     36 N/A N/A MISG        N/A
SHOALS AIRPORT SUNNY     42  29  59 N5        30.16S
SHOALS TVA RES   N/A     37 N/A N/A MISG        N/A
$$

ALZ005>007-016-231600-
NORTH CENTRAL ALABAMA

CITY           SKY/WX    TMP DP  RH WIND       PRES   REMARKS
CULLMAN AG STN   N/A     39 N/A N/A N3          N/A
DECATUR AP     SUNNY     38  29  70 N5        30.14F WCI  34
HUNTSVILLE AP  SUNNY     41  30  65 NE5       30.13S
MERIDIANVILLE  SUNNY     37  30  75 N6        30.13S WCI  33
REDSTONE ARSN  SUNNY     39  30  68 N5        30.12S
VINEMONT AP    FAIR      37  27  67 N6        30.12S WCI  32
$$

ALZ008>010-231600-
NORTHEAST ALABAMA

CITY           SKY/WX    TMP DP  RH WIND       PRES   REMARKS
ALBERTVILLE    SUNNY     43  34  70 NE5       30.09S
FORT PAYNE     MOSUNNY   41  30  65 E5        30.10R
SCOTTSBORO AP  MOSUNNY   41  30  65 NE10G18   30.13F
SCOTTSBORO HCN   N/A     37 N/A N/A MISG        N/A
VALLEY HEAD      N/A     39 N/A N/A MISG        N/A
$$

TNZ076-096-097-231600-
SOUTHEASTERN MIDDLE TENNESSEE

CITY           SKY/WX    TMP DP  RH WIND       PRES   REMARKS
TULLAHOMA      SUNNY     39  28  65 N6        30.11F WCI  35
WINCHESTER     SUNNY     36  28  75 CALM      30.12F
$$

...SURROUNDING SITES...

CITY           SKY/WX    TMP DP  RH WIND       PRES   REMARKS
ATLANTA        MOSUNNY   50  33  52 E9        30.08R
ANNISTON       SUNNY     44  33  65 E5        30.09F
BIRMINGHAM     SUNNY     43  30  60 CALM      30.12S
CHATTANOOGA    MOSUNNY   44  28  53 NE7       30.13F
CORINTH        FAIR      36  27  69 CALM      30.17F
DALTON         MOSUNNY   41  32  70 N5        30.13F
GADSDEN        SUNNY     42  32  67 N3        30.12S
GOLDEN TRNGL   SUNNY     38  29  70 N5        30.16F WCI  34
HALEYVILLE     FAIR      41  29  62 VRB5      30.14S
JACKSON TN     SUNNY     36  29  75 CALM      30.19S
MEMPHIS        SUNNY     38  26  62 CALM      30.19S
NASHVILLE      SUNNY     38  28  67 CALM      30.18S
OXFORD MS      FAIR      36  27  69 CALM      30.20S
ROME           SUNNY     44  33  65 NE5       30.11F
SAVANNAH       SUNNY     34  27  75 CALM      30.17S HAZE
SELMER         SUNNY     36  25  64 VRB3      30.17S
TUPELO         SUNNY     36  26  67 N6        30.17F WCI  31
TUSCALOOSA     SUNNY     42  32  67 N7        30.13S
$$

...GULF COAST WEATHER...

CITY           SKY/WX    TMP DP  RH WIND       PRES   REMARKS
GULFPORT       MOSUNNY   47  33  58 N10       30.09R
PASCAGOULA     SUNNY     49  32  52 N12       30.08R
MOBILE         MOSUNNY   49  32  52 N12       30.08R
GULF SHORES    SUNNY     50  35  56 N10       30.05S
PENSACOLA      SUNNY     53  36  52 N8        30.03S
DESTIN         MOSUNNY   59  41  51 N9        30.02R
PANAMA CITY    CLOUDY    59  48  67 N9        29.99R
APPALACHICOLA  CLOUDY    58  57  97 N12       29.97S
$$




USA.gov is the U.S. government's official web portal to all federal, state and local government web resources and services.